Flag for Brazil Weather past 2 weeks in Campinas, São Paulo, Brazil

Now
72 °F

Clear.


Feels Like: 72 °F
Forecast: 67 / 81 °F
Wind: 12 mph from Southeast

Location: Campinas Aeroporto

Current Time: May 26, 2015 at 9:12:20 AM

Latest Report: May 26, 2015 at 9:00 AM


Visibility: 5 mi

Pressure: 30.18 "Hg

Humidity: 78%

Dew point: 64 °F

Location of CampinasLocation

Historic Weather in Campinas — Graph

°F

Campinas temperature yesterday

Maximum temperature yesterday: 84 °F (at 3:00 PM)
Minimum temperature yesterday: 61 °F (at 6:00 AM)
Average temperature yesterday: 73 °F

Past Weeks' High & Low Weather Summary

 TemperatureHumidityPressure
High84 °F (May 25, 3:00 PM)100% (May 11, 8:00 AM)30.33 "Hg (May 11, 8:00 AM)
Low55 °F (May 16, 6:00 AM)40% (May 25, 3:00 PM)29.95 "Hg (May 11, 1:00 PM)
Average67 °F77%30.17 "Hg
* Reported May 11 8:00 AM — May 26 8:00 AM, Campinas, Weather by CustomWeather, © 2015

Note: Actual official high and low records may vary slightly from our data, if they occured in-between our weather recording intervals... More about our weather records

Advertising

Campinas weather history for previous 24 hours

 ConditionsComfort  
Time TempWeatherWind HumidityBarometerVisibility
8:00 AM
Tue, May 26
70 °FClear.9 mph88%30.15 "Hg4 mi
7:00 AM68 °FFog.8 mph94%30.12 "Hg2 mi
6:00 AM68 °FFog.8 mph88%30.09 "Hg3 mi
5:00 AM68 °FFog.10 mph94%30.09 "Hg3 mi
4:00 AM68 °FClear.10 mph94%30.07 "Hg5 mi
3:00 AM70 °FClear.12 mph88%30.09 "Hg5 mi
2:00 AM70 °FPassing clouds.8 mph83%30.09 "HgN/A
1:00 AM72 °FPassing clouds.7 mph73%30.09 "HgN/A
12:00 AM72 °FPassing clouds.9 mph73%30.09 "HgN/A
11:00 PM
Mon, May 25
73 °FClear.9 mph69%30.12 "Hg10 mi
10:00 PM73 °FClear.8 mph65%30.12 "Hg10 mi
9:00 PM73 °FClear.5 mph69%30.12 "Hg10 mi
8:00 PM79 °FClear.5 mph51%30.09 "Hg10 mi
7:00 PM79 °FClear.5 mph51%30.09 "Hg10 mi
6:00 PM81 °FClear.3 mph48%30.07 "Hg10 mi
5:00 PM82 °FPassing clouds.5 mph42%30.07 "HgN/A
4:00 PM84 °FSunny.5 mph43%30.07 "Hg10 mi
3:00 PM84 °FSunny.5 mph40%30.07 "Hg10 mi
2:00 PM82 °FSunny.7 mph42%30.07 "Hg10 mi
1:00 PM81 °FSunny.8 mph48%30.09 "Hg10 mi
12:00 PM79 °FSunny.7 mph54%30.09 "Hg10 mi
11:00 AM79 °FSunny.8 mph54%30.12 "Hg10 mi
10:00 AM75 °FSunny.7 mph61%30.12 "Hg10 mi
9:00 AM72 °FClear.5 mph69%30.12 "Hg6 mi
Weather by CustomWeather, © 2015

See weather overviewHow to use our weather pages